Location: Potawatomi Wildlife Park
(41.2308°N, 86.1050°W)
Time: 21:39:29
(UTC-04:00)

Daily predictions for brighter satellites

Satellite Brightness Start Highest point End
(mag) Time Altitude Azimuth Time Altitude Azimuth Time Altitude Azimuth
Cosmos 1603 3.8 21:32:30 10° SSW 21:38:07 87° WNW 21:43:45 10° NNE
Cosmos 2058 Rocket 4.2 21:35:22 10° NNW 21:39:34 47° W 21:43:44 10° SSW
USA 186 2.6 21:41:26 10° S 21:44:01 39° W 21:46:27 10° NNW
Cosmos 1943 Rocket 3.9 21:41:13 10° N 21:45:08 19° NE 21:49:04 10° E
ALOS 2.9 21:41:43 10° S 21:46:18 57° W 21:50:55 10° NNW
Cosmos 1812 Rocket 3.7 21:42:12 10° N 21:46:34 59° E 21:50:56 10° SSE
Lacrosse 4 Rocket 2.1 21:43:42 10° S 21:47:16 31° ESE 21:50:55 10° NE
Atlas Centaur 2 3.5 21:46:38 10° WSW 21:52:40 35° S 21:59:47 10° ESE
Cosmos 1992 Rocket 4.1 21:49:36 10° NNW 21:54:48 63° ENE 21:59:57 10° SSE
ISS -1.6 21:53:54 10° W 21:56:58 37° NNW 22:00:04 10° NE
Cosmos 1943 3.3 21:51:52 10° S 21:57:23 56° ESE 22:02:58 10° NNE
SeaSat 1 3.6 21:53:11 10° ESE 21:57:29 31° NE 22:01:48 10° N
Tsikada Rocket 4.1 21:51:46 10° S 21:58:10 84° E 22:04:33 10° N
Cosmos 2228 4.2 21:54:33 10° NNW 21:58:45 44° W 22:02:56 10° SSW
H-2A R/B 2.1 21:54:36 10° SSE 21:58:53 84° ENE 22:03:19 10° NNW
deb Chang Zheng 4 3.7 22:01:34 10° NNE 22:05:59 85° WNW 22:10:19 10° SSW
Cosmos 1626 Rocket 4.3 22:01:50 10° SSW 22:06:11 57° W 22:10:31 10° N
Cosmos 1238 4.0 22:03:33 10° S 22:06:34 73° E 22:09:38 10° N
Meteor 2-12 Rocket 4.4 22:00:45 10° N 22:06:51 73° E 22:12:52 10° SSE
USA 81 4.3 22:07:12 10° N 22:12:21 51° E 22:17:13 11° SSE
CZ-4B R/B 4.1 22:09:23 10° NNE 22:14:09 37° E 22:18:59 10° SSE
Cosmos 1953 4.5 22:13:30 10° NE 22:15:21 13° ENE 22:17:07 10° E
Cosmos 1939 Rocket 3.0 22:13:13 10° S 22:17:21 80° WSW 22:21:31 10° NNW
PSLV R/B 3.3 22:14:30 10° W 22:18:02 87° S 22:21:15 12° E
ATLAS 3B R/B 2.9 22:14:05 10° SSW 22:21:47 77° ESE 22:29:20 10° NE
Nimbus 7 Rocket 4.4 22:15:53 10° NNE 22:21:51 87° ESE 22:27:45 10° SSW
Terra 3.9 22:19:23 10° E 22:21:53 14° ENE 22:24:21 10° NNE
ARGOS 4.0 22:18:00 14° SE 22:22:02 35° ENE 22:26:54 10° N
Cosmos 1190 Rocket 4.0 22:17:10 10° S 22:22:27 75° ESE 22:27:46 10° NNE
Cosmos 1346 Rocket 3.0 22:19:41 10° S 22:23:26 50° E 22:27:16 10° NNE
SPOT 5 2.5 22:21:02 13° SSE 22:24:59 80° ENE 22:29:19 10° N
Cosmos 1953 Rocket 3.7 22:23:11 10° S 22:27:28 56° E 22:31:50 10° NNE
Cosmos 1634 Rocket 4.0 22:21:19 10° N 22:27:29 72° E 22:33:08 13° SSE
CZ-4 SHROUD 3.2 22:25:30 15° S 22:28:01 81° W 22:31:11 10° NNW
MetOp-B 4.2 22:24:19 14° SSE 22:28:54 68° ENE 22:34:13 10° N
PSLV R/B 3.1 22:26:37 16° S 22:28:58 85° WSW 22:32:07 10° NNW
Cosmos 489 Rocket 4.5 22:27:01 10° S 22:33:18 70° ESE 22:39:39 10° NNE
H-2A R/B 3.5 22:33:42 14° ESE 22:36:31 22° ENE 22:40:24 10° NNE
Cosmos 2346 Rocket 4.4 22:31:28 10° S 22:37:38 85° E 22:43:47 10° N
Cosmos 676 Rocket 4.0 22:34:43 10° S 22:39:58 64° ESE 22:45:15 10° NNE
Cosmos 2369 Rocket 2.4 22:34:26 10° NNW 22:40:05 69° WSW 22:44:34 16° S
USA 234 3.8 22:37:09 12° ESE 22:43:00 52° NNE 22:49:20 10° NW
SPOT 1/Viking Rocket 3.6 22:41:55 20° SSE 22:45:29 68° ENE 22:50:37 10° N
YAOGAN 6 2.6 22:43:54 24° SSE 22:45:59 73° ENE 22:49:45 10° N
Cosmos 2279 Rocket 4.2 22:39:51 10° N 22:46:02 58° E 22:50:14 21° SSE
Cosmos 1932 4.4 22:40:31 10° SSW 22:46:32 59° ESE 22:52:39 10° NE
COSMOS 2455 4.4 22:41:25 10° WSW 22:46:58 38° NW 22:52:33 10° NNE
Cosmos 1766 3.3 22:49:19 10° N 22:53:20 68° E 22:55:14 29° SSE
SL-08 RB Rocket 4.0 22:51:28 26° SE 22:53:46 52° ENE 22:58:09 10° N
NOAA 11 4.3 22:51:02 23° SE 22:54:22 61° ENE 22:59:43 10° N
Cosmos 1758 Rocket 3.6 22:57:14 14° SSW 23:00:55 77° W 23:05:17 10° N
Envisat 4.1 22:57:23 10° SSW 23:02:06 39° W 23:06:52 10° NNW
CZ-4C R/B 3.6 23:03:35 18° E 23:03:35 18° E 23:06:53 10° ENE
Cosmos 1758 3.9 23:00:27 10° N 23:04:24 43° ENE 23:05:36 34° ESE
Cosmos 407 Rocket 4.1 23:01:08 10° SSW 23:06:18 56° WNW 23:11:26 10° NNE
USA 238 DEB 3.7 23:02:22 10° SSW 23:09:24 69° ESE 23:16:25 10° NE
USA 238 3.7 23:02:28 10° SSW 23:09:30 68° ESE 23:16:31 10° NE
SL-27 R/B 2.2 23:10:36 36° SSW 23:11:52 89° W 23:15:14 10° NNE
Cosmos 2180 Rocket 4.5 23:08:41 10° N 23:15:01 82° E 23:18:43 27° SSE
Cosmos 1470 4.3 23:16:00 10° NNE 23:19:03 22° ENE 23:19:20 21° E
Cosmos 1805 3.4 23:15:50 10° N 23:19:43 55° E 23:20:29 46° ESE
IGS 5A 4.1 23:19:53 36° ESE 23:20:50 42° ENE 23:24:47 10° N
COSMOS 2487 3.7 23:24:51 29° ENE 23:24:51 29° ENE 23:27:19 10° NE
COSMOS 2406 3.1 23:21:23 19° SSW 23:25:36 77° ESE 23:31:21 10° NNE
Lacrosse 4 Rocket 3.8 23:22:45 10° WSW 23:26:02 23° NW 23:29:22 10° N
Cosmos 1954 Rocket 4.4 23:22:30 10° SSW 23:27:45 64° WNW 23:33:02 10° NNE
Cosmos 1943 Rocket 2.3 23:23:53 10° NNW 23:29:25 69° WSW 23:31:53 34° S
Cosmos 1842 Rocket 3.7 23:27:54 10° N 23:32:15 58° E 23:33:08 48° SE
Cosmos 2084 3.6 23:28:30 10° NW 23:32:38 62° WSW 23:33:35 47° S
DELTA 2 DEB (DPAF) 4.3 23:32:09 38° S 23:33:45 68° WSW 23:38:15 10° NNW
ISS -0.1 23:32:11 10° NW 23:34:07 15° N 23:36:03 10° NNE
SeaSat 1 3.5 23:32:37 24° SSW 23:34:54 36° WSW 23:39:28 10° NW
Cosmos 1656 Rocket 3.8 23:30:32 10° NNW 23:36:13 66° ENE 23:38:15 39° SE
CZ-4C R/B 3.7 23:36:09 41° SSW 23:37:19 59° WSW 23:41:16 10° NNW
Atlas Centaur 2 3.7 23:35:17 10° WSW 23:41:39 30° SSW 23:42:50 29° S
Cosmos 2208 Rocket 3.9 23:36:35 10° NNW 23:41:48 89° WSW 23:43:24 46° SSE
Landsat 7 4.0 23:41:38 40° S 23:43:13 67° WSW 23:47:59 10° NNW
NOSS 3-2 (C) 3.9 23:43:08 36° SE 23:43:51 38° ESE 23:49:46 10° NE
Cosmos 1707 3.7 23:50:19 34° ENE 23:50:19 34° ENE 23:53:23 10° NNE
Cosmos 1953 3.1 23:48:16 10° NNW 23:52:05 45° W 23:52:53 39° SW
Cosmos 1741 Rocket 4.1 23:49:48 30° SSW 23:52:29 79° WNW 23:57:51 10° NNE
Geosat 3.9 23:48:30 10° NNE 23:53:34 87° WNW 23:55:55 33° SSW
